Weather History for Resolute, NU

Change the Weather History Date:

Sunday, November 4, 2012

  Actual Average Record
Temperature  
Mean Temperature 2 °F -  
Max Temperature 9 °F 1 °F 21 °F (1998)
Min Temperature -4 °F -6 °F -22 °F (2003)
Degree Days  
Heating Degree Days 62    
Moisture  
Dew Point -3 °F    
Average Humidity 70    
Maximum Humidity 79    
Minimum Humidity 57    
Precipitation  
Precipitation 0.02 in - - ()
Sea Level Pressure  
Sea Level Pressure 29.76 in    
Wind  
Wind Speed 9 mph ()    
Max Wind Speed 14 mph    
Max Gust Speed -    
Visibility 11.9 miles    
Events Snow    
Averages and records for this station are not official NWS values.
T = Trace of Precipitation, MM = Missing Value Source: Averaged Metar Reports

Daily Weather History Graph

Daily Weather History Graph

Search for Another Location

Airport:

Trip Planner

Search our weather history database for the weather conditions in past years. The results will help you decide how hot, cold, wet, or windy it might be!

Date:

Astronomy

Nov. 04, 2012 Rise Set
Actual Time 11:04 AM CST 1:00 PM CST
Civil Twilight 8:34 AM CST 3:31 PM CST
Nautical Twilight 6:50 AM CST 5:14 PM CST
Astronomical Twilight 5:17 AM CST 6:46 PM CST
Moon No Moon Rise No Moon Set
Length of Visible Light 6h 57m
Length of Day
1h 55m
Waning Gibbous, 72% of the Moon is Illuminated
Nov 4
Waning Gibbous
Nov 6
Last Quarter
Nov 13
New
Nov 20
First Quarter
Nov 28
Full

Hourly Weather History & Observations

Time (CST) Temp. Windchill Dew Point Humidity Pressure Visibility Wind Dir Wind Speed Gust Speed Precip Events Conditions
12:00 AM 10.4 °F -1.5 °F 5.0 °F 79% 29.72 in 10.0 mi SW 8.1 mph - N/A Snow Light Snow
1:00 AM 11 °F - 4 °F 63% 29.70 in 12 mi SSW 12.7 mph - - Snow Light Snow
1:00 AM 10.4 °F -4.8 °F 5.0 °F 79% 29.70 in 8.0 mi SSW 12.7 mph - N/A Snow Light Snow
1:00 AM 10.4 °F -2.4 °F 3.2 °F 73% 29.70 in 8.0 mi SSW 9.2 mph - N/A Snow Light Snow
2:00 AM 10.4 °F 2.2 °F 5.0 °F 79% 29.69 in 4.0 mi SW 4.6 mph - N/A Snow Light Snow
3:00 AM 10.4 °F -2.4 °F 3.2 °F 73% 29.68 in 8.0 mi SW 9.2 mph - N/A Snow Light Snow
4:00 AM 10.4 °F - 3.2 °F 73% 29.68 in 8.0 mi SSW 2.3 mph - N/A Snow Light Snow
5:00 AM 10.4 °F -1.5 °F 3.2 °F 73% 29.67 in 8.0 mi SW 8.1 mph - N/A Snow Light Snow
6:00 AM 9 °F - 2 °F 62% 29.67 in 10 mi West 6.9 mph - - Snow Light Snow
6:00 AM 8.6 °F -2.6 °F 1.4 °F 73% 29.67 in 10.0 mi West 6.9 mph - N/A Snow Light Snow
7:00 AM 6.8 °F -0.1 °F -0.4 °F 72% 29.67 in 12.0 mi NW 3.5 mph - N/A Snow Light Snow
8:00 AM 6.8 °F -5.9 °F -0.4 °F 72% 29.68 in 15.0 mi North 8.1 mph - N/A Snow Light Snow
9:00 AM 3.2 °F -13.9 °F -2.2 °F 78% 29.69 in 15.0 mi NNE 12.7 mph - N/A Snow Light Snow
10:00 AM 5.0 °F -12.3 °F -2.2 °F 72% 29.71 in 12.0 mi North 13.8 mph - N/A Snow Light Snow
11:00 AM 1.4 °F -16.9 °F -5.8 °F 72% 29.73 in 15.0 mi North 13.8 mph - N/A Snow Light Snow
11:43 AM - - - N/A% - 15.0 mi North 12.7 mph - N/A   Partly Cloudy
12:00 PM -0 °F - -7 °F 61% 29.75 in 15 mi North 12.7 mph - - Snow Light Snow
12:00 PM -0.4 °F -18.4 °F -5.8 °F 78% 29.75 in 15.0 mi North 12.7 mph - N/A   Partly Cloudy
1:00 PM -0.4 °F -15.7 °F -9.4 °F 66% 29.77 in 15.0 mi NNW 9.2 mph - N/A   Partly Cloudy
2:00 PM -2.2 °F -19.9 °F -9.4 °F 71% 29.79 in 15.0 mi North 11.5 mph - N/A   Partly Cloudy
3:00 PM -4.0 °F -23.7 °F -14.8 °F 60% 29.81 in 12.0 mi North 13.8 mph - N/A   Mostly Cloudy
4:00 PM -2.2 °F -15.6 °F -11.2 °F 66% 29.84 in 8.0 mi NW 6.9 mph - N/A   Overcast
5:00 PM -0.4 °F -14.7 °F -9.4 °F 66% 29.85 in 10.0 mi NW 8.1 mph - N/A   Overcast
6:00 PM -1 °F - -9 °F 57% 29.87 in 10 mi NW 12.7 mph - - Snow Snow
6:00 PM -0.4 °F -18.4 °F -9.4 °F 66% 29.87 in 10.0 mi NW 12.7 mph - N/A   Overcast
7:00 PM 1.4 °F -15.3 °F -7.6 °F 66% 29.87 in 15.0 mi NW 11.5 mph - N/A   Overcast
7:33 PM - - - N/A% - 15.0 mi NNW 11.5 mph - N/A   Mostly Cloudy
8:00 PM 1.4 °F -9.9 °F -5.8 °F 72% 29.89 in 15.0 mi NNW 5.8 mph - N/A   Overcast
8:26 PM - - - N/A% - 15.0 mi NNW 11.5 mph - N/A   Overcast
9:00 PM 1.4 °F -16.1 °F -7.6 °F 66% 29.90 in 15.0 mi NW 12.7 mph - N/A   Overcast
10:00 PM 1.4 °F -14.5 °F -7.6 °F 66% 29.91 in 15.0 mi North 10.4 mph - N/A   Overcast